Theta_e
309 310 310 310 310 310 310 310 309 309 309 309 309 309 309 309 309 313 320 317 315 313 316 316 316 317 318 319 318 315 313 315 318 316 315 315 316 315 313 315 314 314 314 314 318
311 312 312 312 313 313 312 312 312 311 311 311 311 310 310 309 310 317 317 315 313 313 317 316 316 317 315 319 318 315 315 317 316 315 316 315 314 312 313 311 311 311 312 314 316
315 315 314 315 315 315 315 315 314 315 314 313 313 312 311 309 318 317 315 312 311 313 317 317 317 317 318 317 318 318 315 316 317 317 316 316 314 313 312 314 312 312 312 312 313
316 316 316 316 316 317 317 317 319 320 317 316 315 313 312 310 312 314 314 312 311 315 317 317 316 317 317 317 317 318 316 317 316 315 315 316 316 314 314 313 311 310 310 311 311
317 317 317 318 319 319 319 320 321 321 321 319 317 313 312 316 314 315 313 312 312 315 316 315 315 316 316 315 314 316 317 317 315 313 313 313 314 315 313 312 310 310 309 309 309
317 317 318 319 320 321 322 322 323 323 321 320 317 313 314 313 313 315 314 311 313 315 315 315 315 314 315 315 314 314 313 313 312 313 312 314 313 314 312 310 309 309 308 307 306
318 319 320 321 322 322 323 323 323 322 320 316 312 311 316 313 316 318 316 313 315 315 315 315 315 316 314 314 314 313 313 311 312 312 312 311 313 312 311 309 310 310 308 305 304
319 320 321 322 323 323 323 323 322 321 313 310 309 315 311 311 314 315 315 314 315 315 315 314 315 314 315 314 313 314 313 313 314 313 313 312 313 312 310 310 311 308 305 304 304
320 321 322 323 323 322 322 322 321 315 311 312 316 317 314 308 311 313 313 314 313 312 312 313 314 313 313 312 312 312 313 313 314 313 312 311 311 311 310 310 309 307 304 304 303
321 323 324 323 323 322 321 320 317 313 316 315 314 313 310 311 310 310 311 313 312 311 311 312 311 311 309 311 313 314 314 314 314 314 312 312 310 309 310 311 311 304 303 304 303
323 324 324 323 323 322 321 319 318 318 316 317 316 311 311 311 310 311 311 311 312 312 312 311 310 311 310 310 312 313 314 314 313 313 314 313 312 312 310 310 308 305 304 304 302
323 323 323 323 323 322 320 316 314 315 319 316 318 318 314 311 313 310 310 311 311 312 311 311 312 311 311 312 313 313 314 313 312 313 313 312 312 310 311 312 307 305 304 304 302
322 322 323 324 323 322 319 316 314 310 315 317 315 315 312 313 314 311 309 310 311 312 311 312 314 313 313 313 314 314 314 313 313 312 312 312 311 312 311 307 306 305 304 303 301
322 322 323 323 321 322 319 317 314 312 317 319 315 309 309 310 312 307 309 311 312 313 311 312 312 314 313 315 313 315 313 313 314 313 314 313 315 313 311 308 306 304 302 301 300
323 323 322 322 323 322 318 318 314 311 324 316 311 310 309 311 309 309 308 310 313 314 313 316 313 312 313 313 312 313 311 311 312 312 312 313 314 312 309 309 307 303 302 300 299
324 324 322 320 321 320 319 317 314 320 326 316 310 312 310 309 309 308 309 308 309 311 311 311 308 310 311 311 312 309 310 311 310 312 314 313 314 313 309 310 306 303 302 301 299
324 322 320 321 321 320 319 316 325 327 322 317 312 310 311 311 310 310 310 309 312 315 313 314 312 310 310 311 309 309 311 317 316 314 317 313 314 314 309 307 306 303 301 299 298
321 319 319 320 318 318 317 319 326 325 323 318 318 317 321 310 312 310 311 312 310 313 313 317 319 311 309 311 314 310 314 319 322 317 314 312 316 315 304 302 301 300 299 298 298
317 318 317 318 317 316 319 322 324 323 320 320 319 320 319 319 319 313 313 315 317 314 319 320 318 311 310 311 313 314 315 313 315 305 312 315 313 308 304 302 301 300 298 297 296
314 311 313 317 318 317 319 323 319 318 316 316 319 317 317 316 318 316 317 315 314 312 312 316 318 315 310 310 311 313 313 317 315 314 313 314 313 314 308 304 301 299 297 296 295
309 311 311 314 317 317 319 320 318 316 315 316 316 317 315 317 317 318 319 316 314 311 311 314 316 315 312 313 313 312 311 316 315 313 312 310 311 308 309 305 301 298 297 294 293
308 314 309 311 312 313 316 316 314 314 313 315 315 316 317 316 317 317 318 315 312 311 314 314 314 310 314 311 310 311 312 312 316 313 310 315 313 304 301 300 299 297 296 294 292
309 311 310 312 314 315 314 315 315 314 314 315 315 313 313 314 319 315 314 311 312 313 314 314 312 308 307 306 311 313 311 309 311 311 314 315 312 302 300 299 298 297 295 295 294
306 311 310 311 308 312 315 314 314 311 312 311 312 312 313 314 312 314 312 312 310 310 311 312 313 308 309 304 307 308 307 306 309 311 307 308 308 305 304 303 300 299 298 293 293
304 305 307 311 310 311 311 311 313 312 311 310 311 311 312 314 312 312 312 311 309 310 309 309 307 308 308 307 306 307 306 306 306 306 306 305 304 303 302 297 296 294 296 295 293
301 302 301 305 307 311 310 310 311 309 311 311 311 311 311 312 311 305 306 306 306 305 306 305 301 302 298 303 303 303 301 301 301 302 302 302 301 299 295 294 294 294 292 290 291
297 297 300 303 303 308 309 309 309 308 305 304 308 308 307 302 300 299 299 300 302 302 302 301 298 294 298 301 298 294 298 297 297 296 297 298 297 291 293 293 290 290 290 290 289
Wind_Speed
1 2 2 3 4 4 5 5 6 6 7 8 9 10 12 14 15 9 4 4 3 6 7 8 4 1 1 1 2 3 4 2 3 5 2 4 4 4 4 3 2 5 5 6 5
2 2 3 4 5 6 7 7 7 8 9 9 9 11 12 15 15 7 4 4 5 9 10 8 4 5 2 2 0 4 3 5 1 1 3 5 2 3 4 8 8 5 5 8 4
2 3 3 4 5 6 6 7 8 10 10 10 10 10 11 12 4 2 2 4 5 11 6 6 5 5 1 3 3 4 5 2 5 4 1 2 7 4 5 3 10 9 6 10 3
3 3 3 3 4 6 7 8 11 12 12 11 11 9 8 4 3 1 3 5 8 11 3 1 1 2 2 3 5 3 7 4 5 5 4 3 3 9 5 10 10 10 9 5 8
4 3 3 3 4 6 7 9 11 14 14 12 10 7 3 1 6 2 2 6 9 10 4 3 2 3 3 3 5 4 3 4 6 9 7 5 6 5 12 14 11 12 10 8 7
6 4 4 4 5 7 8 11 13 15 15 13 9 3 2 3 3 3 3 7 7 7 4 5 3 4 3 2 0 2 3 6 7 12 5 6 4 2 10 7 9 7 8 9 15
6 5 5 5 6 8 10 12 16 17 15 10 5 5 2 9 4 3 3 4 5 4 2 2 3 3 2 4 2 2 4 8 10 5 6 6 4 6 11 8 8 3 8 13 13
8 6 6 7 8 10 12 14 16 16 10 7 4 5 5 4 5 4 4 3 7 5 1 3 5 3 2 1 5 3 1 2 6 4 3 3 7 8 11 7 17 7 8 10 13
8 7 6 7 9 10 13 16 15 8 2 4 3 2 5 4 3 6 6 2 5 3 3 3 4 4 2 4 4 2 3 6 7 2 3 3 6 10 9 8 9 8 11 10 11
8 8 5 8 8 11 16 15 7 1 0 1 1 2 2 3 3 3 6 11 3 4 4 3 4 2 3 3 5 5 4 4 4 4 3 4 9 8 12 13 4 10 9 11 13
8 7 7 8 9 10 15 6 3 1 2 6 4 4 4 4 5 2 4 6 4 2 4 2 4 6 11 11 4 2 3 4 5 9 2 8 6 9 10 12 8 8 10 11 12
12 10 9 8 7 8 8 0 2 2 6 9 12 6 3 6 3 2 8 5 4 4 5 4 5 13 7 5 6 6 5 6 5 5 1 7 9 9 13 6 8 13 9 10 9
13 11 11 7 8 5 1 2 2 3 2 6 1 2 4 4 1 5 7 4 4 6 8 8 8 5 6 6 7 4 5 4 8 5 3 3 7 8 3 12 13 9 11 10 11
15 13 9 6 4 4 2 3 2 3 2 4 2 1 2 1 1 1 0 2 4 9 5 6 10 7 6 6 6 4 5 5 5 2 4 3 6 6 4 7 5 7 8 8 10
17 14 13 9 2 4 4 3 2 1 4 2 2 0 2 4 6 1 1 2 3 3 4 6 4 4 5 6 8 8 3 2 2 2 3 3 1 7 9 4 6 6 7 8 8
19 20 15 9 10 5 5 3 1 2 7 3 3 4 4 3 2 3 2 1 0 2 3 5 2 3 5 1 2 5 2 3 4 3 2 7 7 5 5 8 6 6 8 9 7
22 22 18 12 4 13 8 3 2 4 3 4 4 4 5 5 4 5 5 4 5 2 1 2 4 3 3 2 4 3 5 2 1 0 6 5 2 8 4 5 9 12 8 8 6
23 20 17 11 9 13 8 3 8 7 5 1 3 3 4 7 4 6 4 3 6 3 2 5 4 8 5 6 6 5 6 4 5 3 4 5 5 4 4 11 14 9 8 7 6
24 16 10 11 10 14 3 4 7 5 4 7 3 4 5 5 4 5 7 6 8 9 9 5 5 2 2 2 6 4 4 2 3 1 2 4 5 2 5 7 9 9 7 6 6
20 8 7 13 13 8 3 5 5 5 1 1 8 7 7 7 6 7 6 1 4 3 0 2 2 3 1 3 2 2 5 2 2 2 4 5 5 5 5 7 6 8 8 6 5
11 3 8 12 13 2 4 6 5 4 3 1 3 3 4 3 7 6 4 0 3 2 4 3 4 3 5 5 7 2 2 3 3 4 4 2 5 3 6 8 9 7 7 8 7
6 4 11 17 2 2 4 7 2 3 2 6 4 5 5 4 4 7 7 6 6 7 6 1 4 4 8 4 5 5 5 4 3 5 3 4 8 4 8 7 9 8 9 10 9
4 3 9 7 5 5 4 6 6 4 8 7 7 7 5 6 4 7 5 1 8 5 8 5 1 2 9 3 3 2 3 4 3 3 9 8 9 3 6 7 9 10 10 11 9
3 4 2 3 1 3 7 9 8 10 7 6 5 5 4 4 5 4 5 3 3 3 6 6 4 6 8 4 3 3 6 3 4 4 4 10 11 17 9 5 7 9 9 9 9
2 4 4 5 7 10 2 4 14 9 6 9 5 8 6 8 5 7 6 4 3 7 3 5 5 4 4 4 2 3 7 11 5 11 8 20 15 18 12 2 2 1 2 7 7
3 3 1 3 6 14 15 7 8 2 8 6 9 8 13 13 9 6 5 3 3 0 3 1 2 2 4 3 4 7 14 11 14 16 14 18 21 18 3 3 2 2 4 5 5
1 2 1 4 5 9 13 19 12 8 1 2 8 7 5 6 3 5 4 4 4 5 3 4 5 3 6 2 2 7 17 17 12 13 7 11 11 3 4 4 4 3 2 2 3
Wind_Direction
15 357 356 357 350 342 339 337 334 331 328 328 328 327 326 325 322 306 246 242 198 185 152 146 139 170 307 292 29 46 60 260 276 14 296 330 30 351 333 313 340 216 207 275 259
323 341 353 0 356 353 348 346 341 334 329 327 327 325 325 328 323 263 247 236 240 176 156 161 175 175 360 172 3 97 119 234 133 357 323 320 49 306 350 320 287 294 280 298 232
327 343 355 357 358 355 349 349 347 337 330 328 327 324 325 329 328 276 174 183 180 164 158 213 294 155 227 148 203 183 192 219 301 348 329 295 319 319 4 277 262 276 263 302 222
288 312 334 350 355 346 349 342 342 335 330 325 326 321 320 335 290 327 180 174 168 172 193 219 335 122 232 212 221 199 233 246 280 315 314 282 298 312 235 250 257 270 266 278 289
270 282 301 324 332 335 335 330 332 329 324 320 317 310 312 13 255 295 190 175 173 178 198 173 183 184 283 291 359 226 258 291 304 291 278 303 271 248 282 273 276 288 313 312 300
260 268 284 306 318 324 327 325 323 323 319 314 307 261 152 221 253 279 205 175 175 186 205 208 177 172 244 281 110 346 320 281 270 265 252 228 266 68 279 300 312 9 346 10 60
246 258 273 293 307 315 320 320 320 319 316 309 284 178 181 239 210 248 201 189 173 203 247 294 190 119 43 335 285 349 341 315 270 254 227 151 327 236 252 302 287 8 317 69 59
242 251 276 296 309 316 319 318 315 315 320 317 188 159 233 201 197 216 186 183 201 218 116 53 91 93 162 319 7 290 129 315 283 122 270 88 257 249 276 319 294 354 23 84 58
241 251 273 299 307 319 322 315 308 308 332 95 123 179 265 144 170 173 175 158 120 92 96 105 85 174 50 99 1 288 221 203 308 232 136 153 251 270 285 289 302 347 102 77 62
232 253 278 300 317 331 327 319 309 239 202 113 290 330 206 207 157 150 166 140 117 107 55 70 49 91 36 104 216 223 220 264 235 251 165 213 249 272 291 293 22 96 79 73 62
227 247 265 288 318 335 334 329 337 21 195 207 178 242 158 125 141 133 133 133 111 91 143 209 113 200 217 209 215 270 266 273 271 275 297 266 229 252 260 286 102 99 98 86 72
228 238 255 272 301 321 315 305 188 193 302 254 257 245 144 167 133 189 158 139 150 187 135 55 215 224 221 225 218 232 236 260 273 267 203 281 285 264 257 279 148 136 116 103 90
228 238 251 255 289 294 275 186 169 159 184 295 219 102 142 145 194 187 166 173 167 186 188 172 218 190 192 254 263 221 219 236 229 312 288 341 306 263 14 84 92 86 101 94 97
229 235 242 238 280 158 191 193 192 194 335 254 186 48 86 104 135 289 207 223 218 207 224 223 238 252 269 224 193 267 213 236 242 119 233 75 286 255 200 121 92 104 98 99 93
230 230 224 201 208 192 160 181 167 238 313 268 142 189 89 136 140 329 326 37 220 191 124 241 161 191 202 217 161 223 133 166 229 238 33 278 254 266 112 168 153 127 107 98 100
235 225 200 206 220 206 161 149 99 69 245 176 128 172 121 159 132 143 106 39 116 280 242 245 219 197 213 77 146 142 78 9 61 101 314 237 169 275 186 187 148 141 125 116 108
220 204 192 177 179 190 169 96 161 210 284 180 171 176 211 175 170 169 163 180 168 130 168 253 217 218 176 157 15 93 82 291 3 146 222 183 168 238 3 81 144 134 119 113 106
190 179 185 183 170 168 144 98 213 189 243 135 127 163 201 165 209 190 171 229 237 156 167 174 288 177 186 177 189 167 184 174 232 229 257 346 266 274 78 87 103 107 125 120 109
158 148 159 182 178 159 137 203 190 187 212 162 108 177 225 211 176 159 215 214 206 178 184 196 242 5 150 130 143 198 197 164 116 64 52 226 284 96 85 101 124 127 107 122 129
141 129 152 179 177 140 174 219 212 216 142 43 190 179 189 188 176 176 204 195 169 171 204 182 282 262 129 80 340 181 154 92 29 191 238 274 254 234 188 176 153 148 151 158 124
109 110 166 174 165 146 204 210 223 208 123 150 247 287 218 205 185 190 216 7 155 119 90 140 144 255 136 189 173 151 227 218 177 169 201 214 252 146 144 174 170 157 160 152 152
133 144 177 159 104 186 182 187 186 227 154 231 219 208 205 189 250 221 216 191 149 148 163 179 158 216 224 265 157 193 228 199 215 255 247 243 251 108 120 122 131 159 175 183 180
129 115 170 195 180 197 177 203 224 194 200 191 222 194 187 185 230 212 198 328 150 143 165 174 214 343 328 31 30 165 132 97 1 80 240 254 257 170 123 142 182 186 204 199 180
145 132 133 210 272 222 199 212 209 204 206 210 200 188 173 222 229 265 192 175 122 113 123 134 158 178 228 190 97 291 298 272 191 244 267 256 285 287 283 203 232 238 225 194 174
107 205 177 184 213 216 202 245 204 209 205 199 251 205 181 217 216 241 235 139 69 151 105 148 204 183 261 298 80 237 262 274 224 248 229 267 271 269 292 291 277 58 95 162 167
150 164 168 174 152 195 214 199 223 208 180 205 210 193 218 231 215 184 151 168 144 64 141 79 254 119 282 240 277 283 267 263 253 255 254 257 263 276 187 189 182 168 175 167 168
186 20 41 198 165 176 211 219 216 189 194 79 205 184 194 160 105 94 87 99 118 140 136 140 131 85 259 171 47 312 248 253 245 249 239 258 259 171 216 219 166 204 180 189 201